DC1NF-7 Weather Reports


Display with metric or nautical units.
time (UTC)temp
F
wind
direction
speed
MPH
gust
MPH
rain 1hr
in
rain 24hr
in
rain mn
in
humidity
%
barometer
mb
20260903111110 73 197 7.0 14.0 0.00 0.00 0.00 50 1017.5
20260903110105 74 192 5.0 9.0 0.00 0.00 0.00 49 1017.5
20260903105102 73 246 6.0 11.0 0.00 0.00 0.00 49 1017.7
20260903104059 72 227 4.0 9.0 0.00 0.00 0.00 50 1017.8
20260903103055 72 273 5.0 11.0 0.00 0.00 0.00 51 1018.0
20260903102051 72 215 5.0 15.0 0.00 0.00 0.00 51 1018.0
20260903101046 70 228 2.0 4.0 0.00 0.00 0.00 55 1018.1
20260903100042 69 223 2.0 6.0 0.00 0.00 0.00 57 1018.3
20260903095038 69 232 3.0 8.0 0.00 0.00 0.00 55 1018.3
20260903094034 70 258 5.0 9.0 0.00 0.00 0.00 54 1018.3
20260903093032 70 208 4.0 8.0 0.00 0.00 0.00 55 1018.2
20260903092027 69 229 6.0 13.0 0.00 0.00 0.00 55 1018.0
20260903091025 69 230 7.0 11.0 0.00 0.00 0.00 55 1018.0
20260903090020 69 230 5.0 11.0 0.00 0.00 0.00 56 1018.1
20260903085015 69 238 5.0 11.0 0.00 0.00 0.00 57 1018.1
20260903084113 69 257 5.0 11.0 0.00 0.00 0.00 57 1018.2
20260903083110 69 247 4.0 9.0 0.00 0.00 0.00 58 1018.2
20260903082107 68 238 5.0 11.0 0.00 0.00 0.00 60 1018.3
20260903081102 67 195 4.0 7.0 0.00 0.00 0.00 63 1018.0
20260903080059 66 175 4.0 7.0 0.00 0.00 0.00 67 1017.8
20260903075057 66 194 4.0 7.0 0.00 0.00 0.00 69 1017.7
20260903074054 65 173 4.0 7.0 0.00 0.00 0.00 70 1017.8
20260903073048 64 192 2.0 4.0 0.00 0.00 0.00 73 1018.1
20260903072044 62 174 1.0 2.0 0.00 0.00 0.00 77 1018.2
20260903071040 60 183 1.0 2.0 0.00 0.00 0.00 80 1018.3
20260903070037 59 180 0.0 2.0 0.00 0.00 0.00 83 1018.4
20260903065035 58 177 3.0 4.0 0.00 0.00 0.00 85 1018.3
20260903064031 57 187 1.0 4.0 0.00 0.00 0.00 85 1018.2
20260903063026 56 180 1.0 2.0 0.00 0.00 0.00 84 1018.3
20260903062023 56 173 0.0 2.0 0.00 0.00 0.00 85 1018.2
20260903061019 55 0.0 0.0 0.00 0.00 0.00 86 1018.3
20260903060115 54 233 0.0 2.0 0.00 0.00 0.00 87 1018.5
20260903055110 55 0.0 0.0 0.00 0.00 0.00 87 1018.5
20260903054105 54 0.0 0.0 0.00 0.00 0.00 88 1018.2
20260903053102 52 0.0 0.0 0.00 0.00 0.00 91 1018.1
20260903052059 52 0.0 0.0 0.00 0.00 0.00 91 1017.9
20260903051057 53 0.0 0.0 0.00 0.00 0.00 92 1017.9
20260903050051 52 0.0 0.0 0.00 0.00 0.00 92 1017.8
20260903045047 52 0.0 0.0 0.00 0.00 0.00 92 1017.7
20260903044045 52 0.0 0.0 0.00 0.00 0.00 92 1017.6
20260903043040 53 225 0.0 2.0 0.00 0.00 0.00 91 1017.7
20260903042038 53 225 0.0 2.0 0.00 0.00 0.00 91 1017.8
20260903041034 53 234 1.0 2.0 0.00 0.00 0.00 91 1017.7
20260903040030 53 239 1.0 2.0 0.00 0.00 0.00 91 1017.8
20260903035027 53 0.0 0.0 0.00 0.00 0.00 90 1017.8
20260903034026 54 225 0.0 2.0 0.00 0.00 0.00 89 1017.9
20260903033020 54 0.0 0.0 0.00 0.00 0.00 89 1017.9
20260903032016 54 230 1.0 2.0 0.00 0.00 0.00 89 1017.9
20260903031112 54 225 1.0 2.0 0.00 0.00 0.00 89 1017.8
20260903030108 54 0.0 0.0 0.00 0.00 0.00 89 1017.9
20260903025105 54 0.0 0.0 0.00 0.00 0.00 89 1018.0
20260903024102 55 0.0 0.0 0.00 0.00 0.00 89 1017.9
20260903023100 55 0.0 0.0 0.00 0.00 0.00 89 1018.0
20260903022054 55 0.0 0.0 0.00 0.00 0.00 89 1017.9
20260903021051 56 214 0.0 2.0 0.00 0.00 0.00 88 1017.9
20260903020047 56 0.0 0.0 0.00 0.00 0.00 88 1017.8
20260903015041 56 225 0.0 2.0 0.00 0.00 0.00 87 1017.8
20260903014037 56 0.0 0.0 0.00 0.00 0.00 87 1017.7
20260903013034 57 0.0 2.0 0.00 0.00 0.00 87 1017.9
20260903012033 57 0.0 0.0 0.00 0.00 0.00 87 1017.9
20260903011028 57 239 1.0 2.0 0.00 0.00 0.00 87 1017.9
20260903010025 57 239 1.0 4.0 0.00 0.00 0.00 87 1017.9
20260903005019 58 0.0 2.0 0.00 0.00 0.00 86 1017.8
20260903004017 58 0.0 0.0 0.00 0.00 0.00 85 1017.6
20260903003112 59 0.0 0.0 0.00 0.00 0.00 85 1017.7
20260903002109 59 0.0 2.0 0.00 0.00 0.00 84 1017.7
20260903001106 59 0.0 0.0 0.00 0.00 0.00 84 1017.7
20260902235101 60 0.0 0.0 0.00 0.00 0.00 83 1017.6
20260902234058 61 0.0 0.0 0.00 0.00 0.00 82 1017.7
20260902233054 61 0.0 0.0 0.00 0.00 0.00 81 1017.7
20260902232048 61 0.0 0.0 0.00 0.00 0.00 81 1017.7
20260902231044 62 0.0 0.0 0.00 0.00 0.00 79 1017.8
20260902230042 62 0.0 0.0 0.00 0.00 0.00 78 1017.7
20260902225039 62 248 1.0 2.0 0.00 0.00 0.00 79 1017.8
20260902224034 62 240 1.0 2.0 0.00 0.00 0.00 78 1017.8
20260902223031 63 0.0 0.0 0.00 0.00 0.00 77 1017.8
20260902222026 63 225 1.0 2.0 0.00 0.00 0.00 76 1017.9
20260902221023 62 232 1.0 2.0 0.00 0.00 0.00 78 1017.8
20260902220017 63 232 2.0 4.0 0.00 0.00 0.00 78 1017.7
20260902215114 63 205 1.0 2.0 0.00 0.00 0.00 76 1017.6
20260902214109 64 0.0 0.0 0.00 0.00 0.00 75 1017.6
20260902213106 64 0.0 0.0 0.00 0.00 0.00 73 1017.5
20260902212103 65 0.0 0.0 0.00 0.00 0.00 72 1017.7
20260902211059 65 0.0 0.0 0.00 0.00 0.00 72 1017.6
20260902210055 65 240 0.0 2.0 0.00 0.00 0.00 71 1017.6
20260902205052 65 248 0.0 2.0 0.00 0.00 0.00 71 1017.6
20260902204048 65 0.0 0.0 0.00 0.00 0.00 70 1017.5
20260902203043 65 0.0 0.0 0.00 0.00 0.00 71 1017.2
20260902202041 65 0.0 0.0 0.00 0.00 0.00 71 1017.2
20260902201038 65 0.0 0.0 0.00 0.00 0.00 71 1017.1
20260902200037 65 0.0 0.0 0.00 0.00 0.00 70 1017.1
20260902195031 66 0.0 0.0 0.00 0.00 0.00 70 1017.2
20260902194029 65 0.0 0.0 0.00 0.00 0.00 70 1017.1
20260902193024 65 0.0 0.0 0.00 0.00 0.00 71 1017.0
20260902192020 66 0.0 0.0 0.00 0.00 0.00 70 1017.1
20260902191015 67 0.0 0.0 0.00 0.00 0.00 67 1016.9
20260902190114 67 0.0 0.0 0.00 0.00 0.00 64 1016.8
20260902185109 68 0.0 0.0 0.00 0.00 0.00 62 1016.7
20260902184106 68 0.0 0.0 0.00 0.00 0.00 62 1016.7
20260902183102 69 0.0 2.0 0.00 0.00 0.00 61 1016.5
20260902182059 69 0.0 2.0 0.00 0.00 0.00 60 1016.5
20260902181055 69 0.0 2.0 0.00 0.00 0.00 59 1016.4
20260902180049 70 0.0 2.0 0.00 0.00 0.00 58 1016.4
20260902175047 71 132 0.0 2.0 0.00 0.00 0.00 57 1016.2
20260902174041 71 0.0 2.0 0.00 0.00 0.00 56 1016.1
20260902173038 72 216 1.0 4.0 0.00 0.00 0.00 55 1016.2
20260902172035 73 194 1.0 4.0 0.00 0.00 0.00 53 1016.1
20260902171033 74 203 1.0 4.0 0.00 0.00 0.00 53 1016.0
20260902170028 74 157 0.0 2.0 0.00 0.00 0.00 54 1016.0
20260902165023 74 225 1.0 4.0 0.00 0.00 0.00 54 1016.0
20260902164020 73 216 1.0 4.0 0.00 0.00 0.00 54 1016.1
20260902163016 74 200 1.0 2.0 0.00 0.00 0.00 54 1016.0
20260902162112 74 8 1.0 2.0 0.00 0.00 0.00 54 1016.1
20260902161110 74 214 2.0 4.0 0.00 0.00 0.00 54 1016.1
20260902160108 74 267 2.0 6.0 0.00 0.00 0.00 52 1016.1
20260902155105 74 248 2.0 4.0 0.00 0.00 0.00 53 1016.1
20260902154102 75 166 2.0 4.0 0.00 0.00 0.00 52 1016.0
20260902153056 75 222 3.0 6.0 0.00 0.00 0.00 51 1016.0
20260902152053 75 190 2.0 4.0 0.00 0.00 0.00 51 1016.1
20260902151048 76 240 2.0 4.0 0.00 0.00 0.00 50 1016.1
20260902150045 77 225 1.0 4.0 0.00 0.00 0.00 49 1016.1
20260902145041 75 226 3.0 8.0 0.00 0.00 0.00 50 1016.2
20260902144038 75 246 3.0 6.0 0.00 0.00 0.00 49 1016.3
20260902143033 76 235 5.0 8.0 0.00 0.00 0.00 46 1016.1
20260902142031 77 254 5.0 8.0 0.00 0.00 0.00 45 1016.2
20260902141025 79 262 3.0 7.0 0.00 0.00 0.00 44 1016.1
20260902140022 78 225 3.0 7.0 0.00 0.00 0.00 44 1016.2
20260902135019 78 220 3.0 8.0 0.00 0.00 0.00 46 1016.1
20260902134113 77 253 3.0 6.0 0.00 0.00 0.00 47 1016.2
20260902133112 79 251 3.0 6.0 0.00 0.00 0.00 45 1016.3
20260902132106 77 131 1.0 4.0 0.00 0.00 0.00 47 1016.4
20260902131103 76 221 1.0 4.0 0.00 0.00 0.00 49 1016.5
20260902130059 76 235 3.0 6.0 0.00 0.00 0.00 49 1016.4
20260902125055 75 205 3.0 8.0 0.00 0.00 0.00 49 1016.6
20260902124051 75 243 4.0 8.0 0.00 0.00 0.00 50 1016.6
20260902123047 75 243 3.0 4.0 0.00 0.00 0.00 50 1016.6
20260902122046 76 247 5.0 11.0 0.00 0.00 0.00 50 1016.6
20260902121043 77 220 5.0 13.0 0.00 0.00 0.00 47 1016.6
20260902120040 77 185 4.0 8.0 0.00 0.00 0.00 49 1016.6
20260902115037 77 224 3.0 6.0 0.00 0.00 0.00 49 1016.9
20260902114033 76 188 5.0 9.0 0.00 0.00 0.00 50 1017.1
20260902113029 75 186 4.0 9.0 0.00 0.00 0.00 50 1017.2
20260902112023 75 174 9.0 15.0 0.00 0.00 0.00 52 1017.1